Location: Marcé
(47.5801°N, 0.3280°W)
Time: 18:41:25
(UTC+01:00)

Tiros 1 - Pass Details

Date: 04 December 2021
Orbit: 629 x 664 km, 48.4° (Epoch: 26 January)

Event Time Altitude Azimuth Distance (km) Brightness Sun altitude
Rises 23:09:34 0° 281° (W) 2,944 - -57.5°
Reaches altitude 10° 23:11:53 10° 281° (W) 2,039 - -57.8°
Maximum altitude 23:16:36 88° 193° (SSW) 654 - -58.4°
Drops below altitude 10° 23:21:22 10° 104° (ESE) 2,058 - -59.0°
Sets 23:23:43 0° 104° (ESE) 2,974 - -59.2°
